Location: Pl�tzky
(52.0521°N, 11.8020°E)
Time: 07:41:56
(UTC+00:00)

Cosmos 2034 Rocket - Pass Details

Date: 22 November 2019
Orbit: 959 x 1000 km, 82.9° (Epoch: 13 December)

Event Time Altitude Azimuth Distance (km) Brightness Sun altitude
Rises 16:24:53 0° 350° (N) 3,726 7.0 -10.7°
Reaches altitude 10° 16:27:26 10° 353° (N) 2,776 6.3 -11.1°
Maximum altitude 16:33:49 72° 77° (ENE) 1,053 4.0 -12.1°
Drops below altitude 10° 16:40:11 10° 162° (SSE) 2,765 6.4 -13.0°
Sets 16:42:43 0° 165° (SSE) 3,709 7.1 -13.4°
